Find Helios 1A

NORAD ID: 23605 Int'l Des: 1995-033 Owner: CNES/DGA Country: F operational
LEOCIRCULARRETROGRADE

实时位置

正在加载3D地球...

关于 Helios 1A

正在加载描述...

即将过境

Passes for default location (London). Set your location on the main map for personalized predictions.

高度历史

Loading altitude history...

两行轨道根数

1 23605U 95033A 26120.21965593 .00002880 00000-0 20477-3 0 9998
2 23605 98.2033 7.5306 0011868 185.7283 174.3808 15.05521389660947
Epoch: Apr 30, 2026 • Age: 11 hours

当前状态

高度 563.0 km
速度 7.57 km/s
星下点 -11.19°S, 94.79°W
发射日期 Jul 7, 1995
运行时间 30.8 years
类型 other

技术详情

分类 Payload
质量 2537.00 kg
干质量 2500.00 kg
总质量 2537.00 kg
长度 3.50 m
直径 2.00 m
跨度 4.00 m
形状 Box + Pan
制造商 MMST
平台类型 SPOT
阶段状态 In Orbit
所有者/国家 CNES/DGA/F

Most Searched